Terug naar catalogus

BEIDOU 6

ActiefNavigatieGEO
NORAD 37210·PAYLOAD·🇨🇳 China

Gelanceerd Oct 31, 2010 vanaf Xichang Satellite Launch Center

Loading…

TLE

VersSource: Space-Track

Epoch: Sep 14, 2026, 16:04 UTC

1 37210U 10057A   26257.66951645 -.00000119  00000-0  00000-0 0  9992
2 37210   3.8644  68.3114 0007884 180.0201 146.3241  1.00270869 58188

Volg BEIDOU 6 in realtime met AllMySat

Download on the App Store